logo
App data

Galactic Fighters

Galactic Fighters is a 3D space shooter arcade bullet hell videogame in first and third person. Will you manage to get through hordes of aliens and bosses ready to destroy you and the whole universe? Choose your spaceship power it up: the fate of the universe is in your hands.
Store | Hub | SteamDB
Developer: StarworkGC Publisher: StarworkGC
Genre: Action, Indie
Languages: English, French, Italian, Spanish, Russian
Tags: Indie (32), Action (32), Bullet Hell (12), Space (12)
Category: Single-player, Steam Achievements, Steam Trading Cards, Partial Controller Support
Release date: Sep 15, 2016 (previously in Early Access)
Price: $1.19 60%
Owners: 0 .. 20,000
Players (experimental): 1,173
Followers: 144
Peak concurrent players yesterday: 1
Playtime total: 02:21 (average) 02:52 (median)

Steam Spy is still in beta, so expect major bugs.

Owners data:

Access restricted.

This feature is only available to users with special access rights. Sorry.

If you want to proceed, you need to register or log in first and then back Steam Spy on Patreon. Look for Indie or Pro pledge.

Don't forget to use the same email as on Steam Spy!

Audience in 2 weeks:

Access restricted.

This feature is only available to users with special access rights. Sorry.

If you want to proceed, you need to register or log in first and then back Steam Spy on Patreon. Look for Indie or Pro pledge.

Don't forget to use the same email as on Steam Spy!

Peak daily concurrent players:

CCU data courtesy of SteamDB. Used with permission.

Hourly concurrent players:

YouTube:

The views data is based on top 50 videos uploaded last week. Actual number of views might be more than the number shown.

The displayed number of videos uploaded yesterday is limited to 50, so if there were more videos uploaded, the number will still show 50.

If the game has commonly used word as its name (like "FEAR" or "Volume") its number of Youtube views might be wrong.

Games similar to this one:

# Game Release date
Price
Score rank
(Userscore / Metascore)
Owners
Players
Playtime (Median)
1 Alchemist Penguin Jun 6, 2015 $1.99N/A (N/A)0 .. 20,0000%00:00 (00:00)
2 Disastr_Blastr Nov 21, 2016 $1.99N/A (N/A)20,000 .. 50,0000%00:00 (00:00)
3 Hammer Heads Deluxe Aug 30, 2006 $1.24N/A (N/A)20,000 .. 50,0000%00:00 (00:00)
4 Spacejacked Feb 26, 2016 $4.99N/A (N/A)0 .. 20,0000%00:00 (00:00)
5 Redirection Oct 24, 2016 $2.87100% (100%)0 .. 20,0000%00:00 (00:00)
6 MC Lars: The Video Game Oct 14, 2016 $0.99N/A (N/A)0 .. 20,0000%00:00 (00:00)
7 Dark Angels: Masquerade of Shadows Nov 26, 2013 $1.3997% (97%)0 .. 20,0000%00:00 (00:00)
8 Blender Jul 3, 2015 Free95% (96%)1,000,000 .. 2,000,0005.02%03:14 (00:40)
9 Bedfellows FRENZY Feb 23, 2017 $2.3993% (95%)0 .. 20,0004%00:01 (00:00)
10 Space Hole 2016 Sep 2, 2016 $0.49N/A (N/A)0 .. 20,0005%00:10 (00:03)
11 Star Vikings Forever Oct 6, 2016 $2.49N/A (N/A)0 .. 20,0000%00:00 (00:00)
12 GTR 2 FIA GT Racing Game Dec 12, 2012 $3.9980% (91%)50,000 .. 100,0000%00:00 (00:00)
13 GT Legends Nov 28, 2012 $3.9971% (88%/84%)100,000 .. 200,0000%00:00 (00:00)
14 Mr Nibbles Forever Apr 29, 2016 $0.99N/A (N/A)0 .. 20,0000%00:00 (00:00)
15 Fire Arrow Plus Feb 1, 2017 $0.99N/A (N/A)0 .. 20,0000%00:00 (00:00)
16 Toybox Turbos Nov 11, 2014 $3.7465% (86%/69%)100,000 .. 200,0002.17%01:23 (02:09)
17 Russian Car Driver Jan 6, 2017 $0.4963% (85%)50,000 .. 100,0000%00:00 (00:00)
18 MasterpieceVR Sep 14, 2017 $25.4963% (85%)20,000 .. 50,0000%00:00 (00:00)
19 Street Racing Syndicate Jan 8, 2005 $1.0158% (83%)200,000 .. 500,0000.52%03:10 (03:51)
20 Eastside Hockey Manager Dec 1, 2015 $4.9958% (83%)100,000 .. 200,0003.88%04:07 (06:17)
21 Ironclads 2: War of the Pacific Nov 15, 2016 $1.49N/A (N/A)0 .. 20,0000%00:00 (00:00)
22 B-17 Flying Fortress: The Mighty 8th Dec 13, 2000 $1.74N/A (N/A/82%)0 .. 20,0000%00:00 (00:00)
23 Forgotten Ball Mar 3, 2016 $0.49N/A (N/A)0 .. 20,0000%00:00 (00:00)
24 Save the Furries May 15, 2012 $2.93N/A (N/A)0 .. 20,0000%00:00 (00:00)
25 Project Lounge Nov 3, 2016 $4.01N/A (N/A)0 .. 20,0000%00:00 (00:00)
26 TrackMania² Canyon Sep 14, 2011 $5.9951% (80%/81%)100,000 .. 200,0001.27%01:53 (01:15)
27 Fireworks Desert Blast Dec 22, 2016 FreeN/A (N/A)0 .. 20,0000%00:00 (00:00)
28 Kitten Cannon Oct 31, 2016 FreeN/A (N/A)0 .. 20,0000%00:00 (00:00)
29 Ortus Arena, strategy board game online, FOR FREE Sep 28, 2016 FreeN/A (N/A)0 .. 20,0000%00:00 (00:00)
30 Falcon 4.0 Jan 1, 1998 $4.1936% (72%/85%)0 .. 20,0000%00:00 (00:00)
31 Hexus Jan 12, 2011 $1.24N/A (N/A)20,000 .. 50,0000%00:00 (00:00)
32 The Impossible Travel Agency Sep 2, 2016 $2.99N/A (N/A)0 .. 20,0000%00:00 (00:00)
33 Demonlisher Jan 1, 2011 $0.49N/A (N/A)0 .. 20,0000%00:00 (00:00)
34 ArsonVille Nov 24, 2016 $0.5N/A (N/A)0 .. 20,0000%00:00 (00:00)
35 Garage Drummer VR Jun 21, 2016 $5.99N/A (N/A)0 .. 20,0000%00:00 (00:00)
36 The Cooking Game Oct 21, 2016 $4.1924% (64%)20,000 .. 50,0000%00:00 (00:00)
37 The Golf Club Aug 19, 2014 $29.9923% (63%/70%)20,000 .. 50,0000%00:00 (00:00)
38 The Saint: Abyss of Despair Apr 5, 2013 $1.39N/A (N/A)0 .. 20,0000%00:00 (00:00)
39 Pro Cycling Manager 2015 Jun 18, 2015 $5.0917% (58%)50,000 .. 100,0003.7%06:31 (02:10)
40 Smackitball Feb 27, 2017 FreeN/A (N/A)0 .. 20,0000%00:00 (00:00)
41 MiniOne Racing Dec 16, 2008 $1.49N/A (N/A)0 .. 20,0000%00:00 (00:00)
42 Military Life: Tank Simulator Jun 1, 2016 $1.99N/A (N/A)0 .. 20,0000%00:00 (00:00)
43 Existence speed Oct 21, 2016 $0.56N/A (N/A)0 .. 20,0000%00:00 (00:00)
44 The Dreamlord Dec 13, 2016 $0.513% (27%)100,000 .. 200,0000.09%00:14 (00:04)
45 G-Ball May 28, 2014 $0.992% (19%)0 .. 20,0000%00:00 (00:00)
46 Victorian Admirals Feb 1, 2012 $2.99N/A (N/A)0 .. 20,0000%00:00 (00:00)
47 Pacific Liberation Force Oct 27, 2007 $0.99N/A (N/A)20,000 .. 50,0000%00:00 (00:00)
48 Flatout 3: Chaos & Destruction Dec 13, 2011 $0.991% (12%/23%)100,000 .. 200,0000%00:00 (00:00)
49 Deus Ex Machina, Game of the Year, 30th Anniversary Collector’s Edition Sep 29, 2016 $4.99N/A (N/A)0 .. 20,0000%00:00 (00:00)
50 Rogue Contracts: Syndicate Aug 26, 2016 $0.49N/A (N/A)0 .. 20,0000%00:00 (00:00)
51 inSynch Sep 30, 2015 $4.99N/A (N/A)0 .. 20,0000%00:00 (00:00)
52 Mitch: Berry Challenge Aug 25, 2016 $0.51N/A (N/A)0 .. 20,00050%01:14 (00:37)
53 Zen Fish SIM Sep 18, 2014 N/AN/A (N/A)0 .. 20,0000%00:00 (00:00)
54 prog.1 Jun 23, 2016 $4.99N/A (N/A)0 .. 20,0000%00:00 (00:00)
55 TILE Dec 9, 2016 $0.49N/A (N/A)0 .. 20,0000%00:00 (00:00)
56 Beat The Dictators Aug 29, 2016 $4.99N/A (N/A)0 .. 20,0000%00:00 (00:00)
57 LightWalk May 17, 2016 $4.99N/A (N/A)0 .. 20,0000%00:00 (00:00)
58 SHOFER Race Driver Jun 30, 2015 $8.99N/A (N/A)0 .. 20,0000%00:00 (00:00)
59 Naughty Or Nice Dec 24, 2016 FreeN/A (N/A)0 .. 20,0000%00:00 (00:00)
60 Lectrovolt II Aug 23, 2016 $2.99N/A (N/A)0 .. 20,0000%00:00 (00:00)
61 Sudokuball Detective Dec 1, 2009 $0.89N/A (N/A)0 .. 20,0000%00:00 (00:00)
62 Space Ghost Pirate Zombie Slayer Nov 21, 2016 $0.99N/A (N/A)0 .. 20,0000%00:00 (00:00)
63 Wrong Dimension - The One Dimensional Platformer Sep 8, 2016 $2.99N/A (N/A)0 .. 20,0000%00:00 (00:00)
64 Crash Landing Feb 4, 2016 $0.99N/A (N/A)0 .. 20,0000%00:00 (00:00)
65 Metanet Hunter CD Jan 30, 2017 $1.99N/A (N/A)0 .. 20,0000%00:00 (00:00)
66 King Machine Nov 2, 2016 $14.99N/A (N/A)0 .. 20,0000%00:00 (00:00)
67 SUMICO - The Numbers Game Jul 3, 2015 $0.99N/A (N/A)0 .. 20,0000%00:00 (00:00)
68 WackyMoles Dec 12, 2016 $5.99N/A (N/A)0 .. 20,0000%00:00 (00:00)
69 Zeus vs Monsters - Math Game for kids Feb 18, 2016 $5.99N/A (N/A)0 .. 20,0000%00:00 (00:00)
70 Defenders of the Last Colony Jun 23, 2016 $2.99N/A (N/A)0 .. 20,0000%00:00 (00:00)
71 Memoir En Code: Reissue Sep 21, 2016 $4.99N/A (N/A)0 .. 20,0000%00:00 (00:00)
72 Quantum Flux Dec 25, 2014 $0.89N/A (N/A)0 .. 20,0000%00:00 (00:00)
73 Red Barton and The Sky Pirates Mar 14, 2017 $0.66N/A (N/A)0 .. 20,0000%00:00 (00:00)
74 Slightly Magic - 8bit Legacy Edition Sep 29, 2016 $5.99N/A (N/A)0 .. 20,0000%00:00 (00:00)
75 Lavapools May 4, 2016 $1.99N/A (N/A)0 .. 20,0000%00:00 (00:00)
76 Midnight Mysteries: Witches of Abraham - Collector's Edition Nov 24, 2014 $6.99N/A (N/A)0 .. 20,0000%00:00 (00:00)
77 One Final Chaos Oct 21, 2015 $0.49N/A (N/A)0 .. 20,0005%10:47 (03:35)
78 The Turkey of Christmas Past Dec 19, 2016 $8.99N/A (N/A)0 .. 20,0000%00:00 (00:00)

Owners of this game also own:

Access restricted.

This feature is only available to users with special access rights. Sorry.

If you want to proceed, you need to register or log in first and then back Steam Spy on Patreon. Look for Indie or Pro pledge.

Don't forget to use the same email as on Steam Spy!

Playtime distribution:

Access restricted.

This feature is only available to users with special access rights. Sorry.

If you want to proceed, you need to register or log in first and then back Steam Spy on Patreon. Look for Indie or Pro pledge.

Don't forget to use the same email as on Steam Spy!

Playtime (2 weeks):

Access restricted.

This feature is only available to users with special access rights. Sorry.

If you want to proceed, you need to register or log in first and then back Steam Spy on Patreon. Look for Indie or Pro pledge.

Don't forget to use the same email as on Steam Spy!

User reviews:

Login required.

Please register or log in to see this information.